Location: Lecco
(45.8566°N, 9.3977°E)
Time: 13:22:32
(UTC+02:00)

Vanguard 2 Rocket - Pass Details

Date: 19 August 2020
Orbit: 554 x 3326 km, 32.9° (Epoch: 24 September)

Event Time Altitude Azimuth Distance (km) Brightness Sun altitude
Rises 16:20:39 0° 216° (SW) 2,721 10.1 40.3°
Reaches altitude 10° 16:23:56 10° 184° (S) 1,938 9.1 39.8°
Maximum altitude 16:25:48 13° 158° (SSE) 1,882 8.7 39.5°
Drops below altitude 10° 16:27:52 10° 132° (SE) 2,210 8.8 39.2°
Sets 16:32:15 0° 105° (ESE) 3,575 9.6 38.5°
